| time (UTC) | temp C | wind direction | speed KPH | gust KPH | rain 1hr cm | rain 24hr cm | rain mn cm | humidity % | barometer mb |
| 20260505223011 | 14 | 0.0 | 0.0 | 0.00 | 0.00 | 0.00 | 69 | 1004.0 | |
| 20260505221509 | 15 | 0.0 | 0.0 | 0.00 | 0.00 | 0.00 | 67 | 1003.8 | |
| 20260505220013 | 15 | 0.0 | 0.0 | 0.00 | 0.00 | 0.00 | 66 | 1003.6 | |
| 20260505214503 | 15 | 0.0 | 0.0 | 0.00 | 0.00 | 0.00 | 64 | 1003.5 | |
| 20260505213002 | 16 | 0.0 | 0.0 | 0.00 | 0.00 | 0.00 | 62 | 1003.4 | |
| 20260505211502 | 16 | 0.0 | 0.0 | 0.00 | 0.00 | 0.00 | 60 | 1003.4 | |
| 20260505210002 | 17 | 0.0 | 0.0 | 0.00 | 0.00 | 0.00 | 57 | 1003.2 | |
| 20260505204605 | 17 | 0.0 | 0.0 | 0.00 | 0.00 | 0.00 | 55 | 1003.0 | |
| 20260505203108 | 18 | 0.0 | 0.0 | 0.00 | 0.00 | 0.00 | 54 | 1002.6 | |
| 20260505201559 | 18 | 0.0 | 0.0 | 0.00 | 0.00 | 0.00 | 53 | 1002.4 | |
| 20260505200110 | 18 | 0.0 | 0.0 | 0.00 | 0.00 | 0.00 | 53 | 1002.3 | |
| 20260505194558 | 18 | 0.0 | 0.0 | 0.00 | 0.00 | 0.00 | 52 | 1002.4 | |
| 20260505193104 | 18 | 0.0 | 0.0 | 0.00 | 0.00 | 0.00 | 52 | 1002.2 | |
| 20260505191608 | 18 | 0.0 | 0.0 | 0.00 | 0.00 | 0.00 | 51 | 1002.2 | |
| 20260505190057 | 19 | 0.0 | 0.0 | 0.00 | 0.00 | 0.00 | 51 | 1002.3 | |
| 20260505184558 | 19 | 0.0 | 0.0 | 0.00 | 0.00 | 0.00 | 50 | 1002.3 | |
| 20260505183056 | 19 | 0.0 | 0.0 | 0.00 | 0.00 | 0.00 | 49 | 1002.1 | |
| 20260505181558 | 20 | 0.0 | 0.0 | 0.00 | 0.00 | 0.00 | 48 | 1002.1 | |
| 20260505180054 | 20 | 0.0 | 0.0 | 0.00 | 0.00 | 0.00 | 47 | 1002.2 | |
| 20260505174602 | 20 | 0.0 | 0.0 | 0.00 | 0.00 | 0.00 | 45 | 1002.1 | |
| 20260505173056 | 21 | 0.0 | 0.0 | 0.00 | 0.00 | 0.00 | 44 | 1002.2 | |
| 20260505171553 | 22 | 0.0 | 0.0 | 0.00 | 0.00 | 0.00 | 43 | 1002.2 | |
| 20260505170052 | 22 | 0.0 | 0.0 | 0.00 | 0.00 | 0.00 | 41 | 1002.2 | |
| 20260505164551 | 23 | 0.0 | 0.0 | 0.00 | 0.00 | 0.00 | 41 | 1002.3 | |
| 20260505163053 | 22 | 0.0 | 0.0 | 0.00 | 0.00 | 0.00 | 41 | 1002.4 | |
| 20260505161550 | 22 | 0.0 | 0.0 | 0.00 | 0.00 | 0.00 | 41 | 1002.4 | |
| 20260505153048 | 23 | 0.0 | 0.0 | 0.00 | 0.00 | 0.00 | 38 | 1002.6 | |
| 20260505151548 | 25 | 0.0 | 0.0 | 0.00 | 0.00 | 0.00 | 37 | 1002.6 | |
| 20260505124539 | 27 | 0.0 | 0.0 | 0.00 | 0.00 | 0.00 | 25 | 1003.6 | |
| 20260505123036 | 28 | 0.0 | 0.0 | 0.00 | 0.00 | 0.00 | 24 | 1003.8 | |
| 20260505121538 | 27 | 0.0 | 0.0 | 0.00 | 0.00 | 0.00 | 24 | 1004.0 | |
| 20260505120033 | 27 | 0.0 | 0.0 | 0.00 | 0.00 | 0.00 | 24 | 1004.1 | |
| 20260505114530 | 27 | 0.0 | 0.0 | 0.00 | 0.00 | 0.00 | 25 | 1004.3 | |
| 20260505113027 | 27 | 0.0 | 0.0 | 0.00 | 0.00 | 0.00 | 27 | 1004.4 | |
| 20260505111526 | 26 | 0.0 | 0.0 | 0.00 | 0.00 | 0.00 | 29 | 1004.6 | |
| 20260505101512 | 23 | 0.0 | 0.0 | 0.00 | 0.00 | 0.00 | 44 | 1005.9 | |
| 20260505100015 | 22 | 0.0 | 0.0 | 0.00 | 0.00 | 0.00 | 48 | 1006.1 | |
| 20260505094504 | 21 | 0.0 | 0.0 | 0.00 | 0.00 | 0.00 | 48 | 1006.4 | |
| 20260505093002 | 21 | 0.0 | 0.0 | 0.00 | 0.00 | 0.00 | 49 | 1006.6 | |
| 20260505091611 | 19 | 0.0 | 0.0 | 0.00 | 0.00 | 0.00 | 53 | 1006.8 | |
| 20260505090105 | 19 | 0.0 | 0.0 | 0.00 | 0.00 | 0.00 | 52 | 1007.0 | |
| 20260505084559 | 19 | 0.0 | 0.0 | 0.00 | 0.00 | 0.00 | 53 | 1007.0 | |
| 20260505083101 | 18 | 0.0 | 0.0 | 0.00 | 0.00 | 0.00 | 56 | 1007.1 | |
| 20260505081558 | 17 | 0.0 | 0.0 | 0.00 | 0.00 | 0.00 | 59 | 1007.2 | |
| 20260505080052 | 17 | 0.0 | 0.0 | 0.00 | 0.00 | 0.00 | 59 | 1007.2 | |
| 20260505074549 | 16 | 0.0 | 0.0 | 0.00 | 0.00 | 0.00 | 61 | 1007.1 | |
| 20260505073049 | 15 | 0.0 | 0.0 | 0.00 | 0.00 | 0.00 | 62 | 1007.3 | |
| 20260505071551 | 15 | 0.0 | 0.0 | 0.00 | 0.00 | 0.00 | 65 | 1007.4 | |
| 20260505070049 | 14 | 0.0 | 0.0 | 0.00 | 0.00 | 0.00 | 66 | 1007.4 | |
| 20260505064550 | 14 | 0.0 | 0.0 | 0.00 | 0.00 | 0.00 | 66 | 1007.4 | |
| 20260505063047 | 14 | 0.0 | 0.0 | 0.00 | 0.00 | 0.00 | 66 | 1007.2 | |
| 20260505061549 | 14 | 0.0 | 0.0 | 0.00 | 0.00 | 0.00 | 67 | 1007.3 | |
| 20260505060048 | 14 | 0.0 | 0.0 | 0.00 | 0.00 | 0.00 | 68 | 1007.1 | |
| 20260505054553 | 13 | 0.0 | 0.0 | 0.00 | 0.00 | 0.00 | 70 | 1007.0 | |
| 20260505053045 | 13 | 0.0 | 0.0 | 0.00 | 0.00 | 0.00 | 72 | 1007.0 | |
| 20260505051545 | 12 | 0.0 | 0.0 | 0.00 | 0.00 | 0.00 | 75 | 1007.1 | |
| 20260505041544 | 10 | 0.0 | 0.0 | 0.00 | 0.00 | 0.00 | 79 | 1006.9 | |
| 20260505040041 | 10 | 0.0 | 0.0 | 0.00 | 0.00 | 0.00 | 78 | 1007.0 | |
| 20260505034540 | 10 | 0.0 | 0.0 | 0.00 | 0.00 | 0.00 | 78 | 1007.0 | |
| 20260505033041 | 10 | 0.0 | 0.0 | 0.00 | 0.00 | 0.00 | 77 | 1007.1 | |
| 20260505031551 | 11 | 0.0 | 0.0 | 0.00 | 0.00 | 0.00 | 77 | 1007.1 | |
| 20260505030035 | 11 | 0.0 | 0.0 | 0.00 | 0.00 | 0.00 | 76 | 1007.1 | |
| 20260505024545 | 11 | 0.0 | 0.0 | 0.00 | 0.00 | 0.00 | 76 | 1007.2 | |
| 20260505023039 | 11 | 0.0 | 0.0 | 0.00 | 0.00 | 0.00 | 75 | 1007.2 | |
| 20260505021530 | 11 | 0.0 | 0.0 | 0.00 | 0.00 | 0.00 | 75 | 1007.3 | |
| 20260505020029 | 11 | 0.0 | 0.0 | 0.00 | 0.00 | 0.00 | 74 | 1007.4 | |
| 20260505014535 | 11 | 0.0 | 0.0 | 0.00 | 0.00 | 0.00 | 73 | 1007.4 | |
| 20260505013024 | 12 | 0.0 | 0.0 | 0.00 | 0.00 | 0.00 | 71 | 1007.5 | |
| 20260505011522 | 12 | 0.0 | 0.0 | 0.00 | 0.00 | 0.00 | 70 | 1007.5 | |
| 20260505010021 | 12 | 0.0 | 0.0 | 0.00 | 0.00 | 0.00 | 68 | 1007.6 | |
| 20260505004518 | 13 | 0.0 | 0.0 | 0.00 | 0.00 | 0.00 | 66 | 1007.7 | |
| 20260505003014 | 13 | 0.0 | 0.0 | 0.00 | 0.00 | 0.00 | 65 | 1007.7 | |
| 20260505001512 | 14 | 0.0 | 0.0 | 0.00 | 0.00 | 0.00 | 63 | 1007.8 | |
| 20260505000011 | 15 | 0.0 | 0.0 | 0.00 | 0.00 | 0.00 | 61 | 1007.8 | |
| 20260504234504 | 15 | 0.0 | 0.0 | 0.00 | 0.00 | 0.00 | 59 | 1008.0 | |
| 20260504233104 | 16 | 0.0 | 0.0 | 0.00 | 0.00 | 0.00 | 56 | 1008.1 | |
| 20260504231600 | 16 | 0.0 | 0.0 | 0.00 | 0.00 | 0.00 | 56 | 1008.2 | |
| 20260504230059 | 16 | 0.0 | 0.0 | 0.00 | 0.00 | 0.00 | 56 | 1008.2 | |
| 20260504224556 | 16 | 0.0 | 0.0 | 0.00 | 0.00 | 0.00 | 56 | 1008.3 |